Time,TemperatureF,DewpointF,PressureIn,WindDirection,WindDirectionDegrees,WindSpeedMPH,WindSpeedGustMPH,Humidity,HourlyPrecipIn,Conditions,Clouds,dailyrainin,SoftwareType,DateUTC
2013-05-30 00:05:00,72.8,62.0,29.68,SSE,157,2.0,2.0,69,0.00,,,0.00,Wunderground v.1.15,2013-05-30 05:05:00,
2013-05-30 00:15:00,72.8,62.0,29.68,SE,125,2.0,2.0,69,0.00,,,0.00,Wunderground v.1.15,2013-05-30 05:15:00,
2013-05-30 00:25:00,72.7,62.3,29.68,South,182,2.0,5.0,70,0.00,,,0.00,Wunderground v.1.15,2013-05-30 05:25:00,
2013-05-30 00:35:00,72.3,62.4,29.68,SSE,150,3.0,4.0,71,0.00,,,0.00,Wunderground v.1.15,2013-05-30 05:35:00,
2013-05-30 00:45:00,72.0,62.5,29.68,ESE,121,2.0,5.0,72,0.00,,,0.00,Wunderground v.1.15,2013-05-30 05:45:00,
2013-05-30 00:55:00,71.8,62.3,29.68,SE,134,2.0,2.0,72,0.00,,,0.00,Wunderground v.1.15,2013-05-30 05:55:00,
2013-05-30 01:05:00,71.6,62.5,29.67,SSE,163,2.0,2.0,73,0.00,,,0.00,Wunderground v.1.15,2013-05-30 06:05:00,
2013-05-30 01:10:00,71.6,62.5,29.67,ENE,76,2.0,2.0,73,0.00,,,0.00,Wunderground v.1.15,2013-05-30 06:10:00,
2013-05-30 01:20:00,71.6,62.5,29.67,South,185,3.0,4.0,73,0.00,,,0.00,Wunderground v.1.15,2013-05-30 06:20:00,
2013-05-30 01:30:00,71.8,63.1,29.67,SE,128,2.0,9.0,74,0.00,,,0.00,Wunderground v.1.15,2013-05-30 06:30:00,
2013-05-30 01:40:00,71.8,63.1,29.67,SE,138,2.0,3.0,74,0.00,,,0.00,Wunderground v.1.15,2013-05-30 06:40:00,
2013-05-30 01:50:00,72.0,63.3,29.67,SE,146,3.0,4.0,74,0.00,,,0.00,Wunderground v.1.15,2013-05-30 06:50:00,
2013-05-30 02:00:00,72.1,63.4,29.67,SSE,166,3.0,3.0,74,0.00,,,0.00,Wunderground v.1.15,2013-05-30 07:00:00,
2013-05-30 02:09:00,72.1,63.7,29.67,South,169,3.0,3.0,75,0.00,,,0.00,Wunderground v.1.15,2013-05-30 07:09:00,
2013-05-30 02:14:00,72.1,63.7,29.67,SE,142,4.0,6.0,75,0.00,,,0.00,Wunderground v.1.15,2013-05-30 07:14:00,
2013-05-30 02:20:00,72.1,63.7,29.67,SE,134,3.0,3.0,75,0.00,,,0.00,Wunderground v.1.15,2013-05-30 07:20:00,
2013-05-30 02:30:00,72.3,64.3,29.67,SE,144,4.0,6.0,76,0.00,,,0.00,Wunderground v.1.15,2013-05-30 07:30:00,
2013-05-30 02:39:00,72.3,64.3,29.67,SSE,165,4.0,4.0,76,0.00,,,0.00,Wunderground v.1.15,2013-05-30 07:39:00,
2013-05-30 02:45:00,72.3,64.3,29.67,SE,130,4.0,4.0,76,0.00,,,0.00,Wunderground v.1.15,2013-05-30 07:45:00,
2013-05-30 02:55:00,72.1,64.5,29.68,SSE,157,3.0,4.0,77,0.00,,,0.00,Wunderground v.1.15,2013-05-30 07:55:00,
2013-05-30 03:05:00,72.1,64.5,29.68,SE,145,3.0,6.0,77,0.00,,,0.00,Wunderground v.1.15,2013-05-30 08:05:00,
2013-05-30 03:15:00,72.0,64.8,29.68,SE,143,3.0,5.0,78,0.00,,,0.00,Wunderground v.1.15,2013-05-30 08:15:00,
2013-05-30 03:25:00,71.8,64.6,29.68,SE,138,2.0,2.0,78,0.00,,,0.00,Wunderground v.1.15,2013-05-30 08:25:00,
2013-05-30 03:35:00,71.8,64.9,29.68,SE,132,2.0,2.0,79,0.00,,,0.00,Wunderground v.1.15,2013-05-30 08:35:00,
2013-05-30 03:45:00,71.8,65.3,29.68,SSE,152,1.0,3.0,80,0.00,,,0.00,Wunderground v.1.15,2013-05-30 08:45:00,
2013-05-30 03:55:00,71.8,65.3,29.68,ESE,121,2.0,3.0,80,0.00,,,0.00,Wunderground v.1.15,2013-05-30 08:55:00,
2013-05-30 04:00:00,71.8,65.3,29.68,SSW,206,2.0,5.0,80,0.00,,,0.00,Wunderground v.1.15,2013-05-30 09:00:00,
2013-05-30 04:05:00,71.6,65.1,29.69,SSE,155,2.0,5.0,80,0.00,,,0.00,Wunderground v.1.15,2013-05-30 09:05:00,
2013-05-30 04:10:00,71.6,65.5,29.69,East,94,2.0,3.0,81,0.00,,,0.00,Wunderground v.1.15,2013-05-30 09:10:00,
2013-05-30 04:20:00,71.1,65.0,29.70,SSW,202,3.0,3.0,81,0.00,,,0.00,Wunderground v.1.15,2013-05-30 09:20:00,
2013-05-30 04:30:00,70.8,65.0,29.70,West,260,1.0,1.0,82,0.00,,,0.00,Wunderground v.1.15,2013-05-30 09:30:00,
2013-05-30 04:39:00,69.9,64.5,29.72,WSW,244,1.0,1.0,83,0.16,,,0.02,Wunderground v.1.15,2013-05-30 09:39:00,
2013-05-30 04:45:00,69.4,64.4,29.72,WSW,244,1.0,1.0,84,0.12,,,0.03,Wunderground v.1.15,2013-05-30 09:45:00,
2013-05-30 04:55:00,68.4,63.7,29.71,WSW,244,0.0,0.0,85,0.05,,,0.04,Wunderground v.1.15,2013-05-30 09:55:00,
2013-05-30 05:05:00,67.4,63.1,29.72,WSW,250,2.0,2.0,86,0.05,,,0.04,Wunderground v.1.15,2013-05-30 10:05:00,
2013-05-30 05:15:00,66.8,62.5,29.72,South,180,1.0,2.0,86,0.00,,,0.05,Wunderground v.1.15,2013-05-30 10:15:00,
2013-05-30 05:25:00,66.3,62.3,29.69,SSW,212,1.0,4.0,87,0.00,,,0.05,Wunderground v.1.15,2013-05-30 10:25:00,
2013-05-30 05:34:00,65.8,61.5,29.69,South,172,2.0,3.0,86,0.00,,,0.05,Wunderground v.1.15,2013-05-30 10:34:00,
2013-05-30 05:40:00,65.5,61.2,29.69,South,169,2.0,2.0,86,0.00,,,0.05,Wunderground v.1.15,2013-05-30 10:40:00,
2013-05-30 05:50:00,64.7,60.7,29.69,SSE,152,1.0,1.0,87,0.00,,,0.05,Wunderground v.1.15,2013-05-30 10:50:00,
2013-05-30 06:00:00,64.2,60.2,29.69,SSW,209,1.0,1.0,87,0.00,,,0.05,Wunderground v.1.15,2013-05-30 11:00:00,
2013-05-30 06:05:00,64.0,60.1,29.69,SSW,206,0.0,2.0,87,0.00,,,0.05,Wunderground v.1.15,2013-05-30 11:05:00,
2013-05-30 06:15:00,63.9,60.6,29.69,SSW,197,0.0,1.0,89,0.00,,,0.05,Wunderground v.1.15,2013-05-30 11:15:00,
2013-05-30 06:25:00,63.9,60.6,29.71,SSW,197,0.0,0.0,89,0.00,,,0.05,Wunderground v.1.15,2013-05-30 11:25:00,
2013-05-30 06:35:00,64.0,61.0,29.71,South,178,0.0,1.0,90,0.00,,,0.05,Wunderground v.1.15,2013-05-30 11:35:00,
2013-05-30 06:45:00,64.2,61.2,29.71,ESE,122,1.0,2.0,90,0.00,,,0.05,Wunderground v.1.15,2013-05-30 11:45:00,
2013-05-30 06:54:00,64.3,61.3,29.71,East,92,1.0,3.0,90,0.00,,,0.05,Wunderground v.1.15,2013-05-30 11:54:00,
2013-05-30 07:00:00,64.3,61.3,29.71,East,97,2.0,2.0,90,0.00,,,0.05,Wunderground v.1.15,2013-05-30 12:00:00,
2013-05-30 07:05:00,64.3,61.3,29.71,ESE,117,2.0,2.0,90,0.00,,,0.05,Wunderground v.1.15,2013-05-30 12:05:00,
2013-05-30 07:10:00,64.3,61.3,29.71,SSE,159,1.0,5.0,90,0.00,,,0.05,Wunderground v.1.15,2013-05-30 12:10:00,
2013-05-30 07:20:00,64.5,61.5,29.71,SSE,153,2.0,2.0,90,0.00,,,0.05,Wunderground v.1.15,2013-05-30 12:20:00,
2013-05-30 07:30:00,65.2,61.6,29.71,SSE,165,2.0,3.0,88,0.00,,,0.05,Wunderground v.1.15,2013-05-30 12:30:00,
2013-05-30 07:40:00,65.6,61.3,29.71,SE,124,3.0,3.0,86,0.00,,,0.05,Wunderground v.1.15,2013-05-30 12:40:00,
2013-05-30 07:49:00,65.8,60.8,29.72,SSE,168,4.0,13.0,84,0.00,,,0.05,Wunderground v.1.15,2013-05-30 12:49:00,
2013-05-30 07:55:00,66.0,60.7,29.72,SSE,165,5.0,13.0,83,0.00,,,0.05,Wunderground v.1.15,2013-05-30 12:55:00,
2013-05-30 08:05:00,66.6,61.3,29.71,SE,135,4.0,5.0,83,0.00,,,0.05,Wunderground v.1.15,2013-05-30 13:05:00,
2013-05-30 08:15:00,67.3,61.3,29.71,South,182,5.0,7.0,81,0.00,,,0.05,Wunderground v.1.15,2013-05-30 13:15:00,
2013-05-30 08:25:00,67.6,61.6,29.72,SSE,149,5.0,5.0,81,0.00,,,0.05,Wunderground v.1.15,2013-05-30 13:25:00,
2013-05-30 08:35:00,68.4,62.0,29.72,West,261,6.0,6.0,80,0.00,,,0.05,Wunderground v.1.15,2013-05-30 13:35:00,
2013-05-30 08:45:00,68.9,61.8,29.72,South,179,6.0,11.0,78,0.00,,,0.05,Wunderground v.1.15,2013-05-30 13:45:00,
2013-05-30 08:55:00,69.9,62.4,29.71,ESE,109,6.0,7.0,77,0.00,,,0.05,Wunderground v.1.15,2013-05-30 13:55:00,
2013-05-30 09:05:00,71.1,62.4,29.70,SE,132,6.0,10.0,74,0.00,,,0.05,Wunderground v.1.15,2013-05-30 14:05:00,
2013-05-30 09:10:00,71.6,62.5,29.70,SSE,149,6.0,9.0,73,0.00,,,0.05,Wunderground v.1.15,2013-05-30 14:10:00,
2013-05-30 09:19:00,72.5,63.7,29.69,SSE,167,7.0,9.0,74,0.00,,,0.05,Wunderground v.1.15,2013-05-30 14:19:00,
2013-05-30 09:25:00,73.0,63.8,29.69,SSE,148,6.0,9.0,73,0.00,,,0.05,Wunderground v.1.15,2013-05-30 14:25:00,
2013-05-30 09:35:00,73.5,64.3,29.69,SE,138,7.0,9.0,73,0.00,,,0.05,Wunderground v.1.15,2013-05-30 14:35:00,
2013-05-30 09:45:00,74.2,64.6,29.69,SE,142,10.0,15.0,72,0.00,,,0.05,Wunderground v.1.15,2013-05-30 14:45:00,
2013-05-30 09:55:00,74.7,64.7,29.68,South,178,10.0,12.0,71,0.00,,,0.05,Wunderground v.1.15,2013-05-30 14:55:00,
2013-05-30 10:05:00,74.9,64.9,29.68,SE,145,10.0,14.0,71,0.00,,,0.05,Wunderground v.1.15,2013-05-30 15:05:00,
2013-05-30 10:10:00,74.9,64.9,29.68,South,169,9.0,12.0,71,0.00,,,0.05,Wunderground v.1.15,2013-05-30 15:10:00,
2013-05-30 10:20:00,75.1,64.6,29.68,SE,138,9.0,9.0,70,0.00,,,0.05,Wunderground v.1.15,2013-05-30 15:20:00,
2013-05-30 10:30:00,75.6,65.1,29.68,SSE,155,8.0,8.0,70,0.00,,,0.05,Wunderground v.1.15,2013-05-30 15:30:00,
2013-05-30 10:40:00,77.0,66.0,29.68,SSE,148,9.0,9.0,69,0.00,,,0.05,Wunderground v.1.15,2013-05-30 15:40:00,
2013-05-30 10:50:00,77.4,66.0,29.68,SSE,161,9.0,9.0,68,0.00,,,0.05,Wunderground v.1.15,2013-05-30 15:50:00,
2013-05-30 10:59:00,77.9,66.5,29.68,South,188,9.0,10.0,68,0.00,,,0.05,Wunderground v.1.15,2013-05-30 15:59:00,
2013-05-30 11:05:00,78.3,65.6,29.68,South,178,11.0,11.0,65,0.00,,,0.05,Wunderground v.1.15,2013-05-30 16:05:00,
2013-05-30 11:15:00,79.0,65.3,29.68,SSE,152,10.0,11.0,63,0.00,,,0.05,Wunderground v.1.15,2013-05-30 16:15:00,
2013-05-30 11:25:00,79.0,65.8,29.68,SE,132,10.0,14.0,64,0.00,,,0.05,Wunderground v.1.15,2013-05-30 16:25:00,
2013-05-30 11:35:00,78.8,64.7,29.68,SE,142,10.0,16.0,62,0.00,,,0.05,Wunderground v.1.15,2013-05-30 16:35:00,
2013-05-30 11:45:00,78.6,64.0,29.68,South,178,11.0,11.0,61,0.00,,,0.05,Wunderground v.1.15,2013-05-30 16:45:00,
2013-05-30 11:55:00,79.2,65.1,29.68,SSW,192,9.0,11.0,62,0.00,,,0.05,Wunderground v.1.15,2013-05-30 16:55:00,
2013-05-30 12:05:00,79.4,64.8,29.68,SSE,151,9.0,14.0,61,0.00,,,0.05,Wunderground v.1.15,2013-05-30 17:05:00,
2013-05-30 12:15:00,80.3,66.1,29.68,South,184,9.0,11.0,62,0.00,,,0.05,Wunderground v.1.15,2013-05-30 17:15:00,
2013-05-30 12:25:00,80.5,65.8,29.67,South,185,11.0,13.0,61,0.00,,,0.05,Wunderground v.1.15,2013-05-30 17:25:00,
2013-05-30 12:34:00,79.9,65.2,29.66,SSW,193,10.0,10.0,61,0.00,,,0.05,Wunderground v.1.15,2013-05-30 17:34:00,
2013-05-30 12:40:00,79.9,64.8,29.66,SSE,159,10.0,11.0,60,0.00,,,0.05,Wunderground v.1.15,2013-05-30 17:40:00,
2013-05-30 12:50:00,80.5,65.8,29.65,SSE,158,9.0,9.0,61,0.00,,,0.05,Wunderground v.1.15,2013-05-30 17:50:00,
2013-05-30 13:00:00,81.6,65.9,29.65,SSE,165,7.0,11.0,59,0.00,,,0.05,Wunderground v.1.15,2013-05-30 18:00:00,
2013-05-30 13:05:00,81.6,65.9,29.63,SE,140,8.0,14.0,59,0.00,,,0.05,Wunderground v.1.15,2013-05-30 18:05:00,
2013-05-30 13:10:00,81.8,65.1,29.63,SSW,201,10.0,10.0,57,0.00,,,0.05,Wunderground v.1.15,2013-05-30 18:10:00,
2013-05-30 13:19:00,82.4,66.1,29.63,SSE,159,11.0,11.0,58,0.00,,,0.05,Wunderground v.1.15,2013-05-30 18:19:00,
2013-05-30 13:25:00,82.6,65.3,29.63,SSE,154,10.0,12.0,56,0.00,,,0.05,Wunderground v.1.15,2013-05-30 18:25:00,
2013-05-30 13:35:00,82.6,65.8,29.63,South,183,11.0,14.0,57,0.00,,,0.05,Wunderground v.1.15,2013-05-30 18:35:00,
2013-05-30 13:44:00,81.2,65.0,29.63,SSE,161,11.0,14.0,58,0.00,,,0.05,Wunderground v.1.15,2013-05-30 18:44:00,
2013-05-30 13:50:00,81.2,65.0,29.65,SSW,195,10.0,19.0,58,0.00,,,0.05,Wunderground v.1.15,2013-05-30 18:50:00,
2013-05-30 14:00:00,80.7,64.5,29.65,South,178,13.0,13.0,58,0.00,,,0.05,Wunderground v.1.15,2013-05-30 19:00:00,
2013-05-30 14:05:00,80.1,65.0,29.66,SSE,153,12.0,13.0,60,0.00,,,0.05,Wunderground v.1.15,2013-05-30 19:05:00,
2013-05-30 14:14:00,80.5,64.9,29.66,SSE,149,12.0,12.0,59,0.00,,,0.05,Wunderground v.1.15,2013-05-30 19:14:00,
2013-05-30 14:20:00,80.7,64.5,29.66,South,186,12.0,12.0,58,0.00,,,0.05,Wunderground v.1.15,2013-05-30 19:20:00,
2013-05-30 14:30:00,81.2,63.5,29.66,SSE,163,10.0,28.0,55,0.00,,,0.05,Wunderground v.1.15,2013-05-30 19:30:00,
2013-05-30 14:39:00,79.9,62.8,29.65,SE,146,11.0,13.0,56,0.00,,,0.05,Wunderground v.1.15,2013-05-30 19:39:00,
2013-05-30 14:45:00,79.4,61.8,29.65,SSW,194,9.0,15.0,55,0.00,,,0.05,Wunderground v.1.15,2013-05-30 19:45:00,
2013-05-30 14:55:00,79.6,60.4,29.67,SSE,161,10.0,10.0,52,0.00,,,0.05,Wunderground v.1.15,2013-05-30 19:55:00,
2013-05-30 15:05:00,79.0,62.0,29.64,SSE,148,7.0,8.0,56,0.00,,,0.05,Wunderground v.1.15,2013-05-30 20:05:00,
2013-05-30 15:15:00,79.4,62.3,29.64,South,173,9.0,11.0,56,0.00,,,0.05,Wunderground v.1.15,2013-05-30 20:15:00,
2013-05-30 15:24:00,79.6,61.5,29.64,SW,221,9.0,9.0,54,0.00,,,0.05,Wunderground v.1.15,2013-05-30 20:24:00,
2013-05-30 15:30:00,79.2,59.5,29.64,SSE,148,9.0,13.0,51,0.00,,,0.05,Wunderground v.1.15,2013-05-30 20:30:00,
2013-05-30 15:40:00,77.4,60.5,29.64,SSE,161,10.0,10.0,56,0.00,,,0.05,Wunderground v.1.15,2013-05-30 20:40:00,
2013-05-30 15:50:00,76.5,60.6,29.65,SSW,199,7.0,7.0,58,0.00,,,0.05,Wunderground v.1.15,2013-05-30 20:50:00,
2013-05-30 16:00:00,76.0,60.6,29.65,South,176,6.0,6.0,59,0.00,,,0.05,Wunderground v.1.15,2013-05-30 21:00:00,
2013-05-30 16:05:00,75.8,59.5,29.65,SSE,166,6.0,9.0,57,0.00,,,0.05,Wunderground v.1.15,2013-05-30 21:05:00,
2013-05-30 16:15:00,75.4,60.5,29.65,SSE,167,5.0,6.0,60,0.00,,,0.05,Wunderground v.1.15,2013-05-30 21:15:00,
2013-05-30 16:25:00,74.6,59.3,29.66,SSE,159,4.0,11.0,59,0.00,,,0.05,Wunderground v.1.15,2013-05-30 21:25:00,
2013-05-30 16:35:00,73.9,59.6,29.67,South,186,7.0,7.0,61,0.00,,,0.05,Wunderground v.1.15,2013-05-30 21:35:00,
2013-05-30 16:44:00,73.3,59.5,29.67,SE,138,4.0,6.0,62,0.00,,,0.05,Wunderground v.1.15,2013-05-30 21:44:00,
2013-05-30 16:50:00,72.8,60.8,29.66,SSE,154,3.0,3.0,66,0.00,,,0.05,Wunderground v.1.15,2013-05-30 21:50:00,
2013-05-30 17:00:00,72.1,60.1,29.66,SSE,153,3.0,3.0,66,0.00,,,0.05,Wunderground v.1.15,2013-05-30 22:00:00,
2013-05-30 17:05:00,71.8,61.1,29.67,SSE,154,3.0,3.0,69,0.00,,,0.06,Wunderground v.1.15,2013-05-30 22:05:00,
2013-05-30 17:15:00,70.3,62.0,29.67,SSE,161,2.0,2.0,75,0.65,,,0.08,Wunderground v.1.15,2013-05-30 22:15:00,
2013-05-30 17:25:00,68.4,62.7,29.67,East,96,1.0,1.0,82,0.33,,,0.17,Wunderground v.1.15,2013-05-30 22:25:00,
2013-05-30 17:35:00,67.6,62.6,29.66,SE,136,1.0,2.0,84,0.30,,,0.21,Wunderground v.1.15,2013-05-30 22:35:00,
2013-05-30 17:45:00,67.3,63.3,29.66,SE,144,0.0,3.0,87,2.32,,,0.40,Wunderground v.1.15,2013-05-30 22:45:00,
2013-05-30 17:55:00,67.1,63.7,29.66,SE,142,3.0,4.0,89,0.12,,,0.51,Wunderground v.1.15,2013-05-30 22:55:00,
2013-05-30 18:05:00,66.8,63.8,29.66,West,259,2.0,3.0,90,0.57,,,0.53,Wunderground v.1.15,2013-05-30 23:05:00,
2013-05-30 18:10:00,66.6,63.3,29.66,NNE,28,3.0,4.0,89,2.18,,,0.62,Wunderground v.1.15,2013-05-30 23:10:00,
2013-05-30 18:20:00,65.0,61.7,29.69,ESE,120,4.0,4.0,89,0.98,,,0.79,Wunderground v.1.15,2013-05-30 23:20:00,
2013-05-30 18:29:00,64.2,61.2,29.69,ESE,115,3.0,3.0,90,0.22,,,0.94,Wunderground v.1.15,2013-05-30 23:29:00,
2013-05-30 18:35:00,64.2,61.5,29.72,NNE,12,3.0,3.0,91,0.47,,,0.98,Wunderground v.1.15,2013-05-30 23:35:00,
2013-05-30 18:45:00,63.9,61.2,29.72,NE,43,1.0,2.0,91,0.77,,,1.31,Wunderground v.1.15,2013-05-30 23:45:00,
2013-05-30 18:55:00,63.7,61.3,29.72,NE,42,1.0,1.0,92,0.12,,,1.41,Wunderground v.1.15,2013-05-30 23:55:00,
2013-05-30 19:05:00,63.7,61.3,29.70,NW,317,1.0,2.0,92,2.02,,,1.48,Wunderground v.1.15,2013-05-31 00:05:00,
2013-05-30 19:10:00,63.9,61.5,29.70,WSW,252,1.0,4.0,92,0.64,,,1.58,Wunderground v.1.15,2013-05-31 00:10:00,
2013-05-30 19:20:00,63.9,61.5,29.76,SSE,148,4.0,4.0,92,1.81,,,2.07,Wunderground v.1.15,2013-05-31 00:20:00,
2013-05-30 19:30:00,63.2,60.8,29.76,SSE,149,1.0,4.0,92,0.38,,,2.20,Wunderground v.1.15,2013-05-31 00:30:00,
2013-05-30 19:40:00,62.7,60.6,29.72,SSE,148,3.0,3.0,93,0.55,,,2.26,Wunderground v.1.15,2013-05-31 00:40:00,
2013-05-30 19:49:00,62.4,60.3,29.72,SSE,162,1.0,1.0,93,0.40,,,2.32,Wunderground v.1.15,2013-05-31 00:49:00,
2013-05-30 19:55:00,62.4,60.3,29.72,SSE,162,0.0,1.0,93,0.42,,,2.35,Wunderground v.1.15,2013-05-31 00:55:00,
2013-05-30 20:05:00,62.3,60.2,29.73,SSE,162,0.0,0.0,93,2.17,,,2.47,Wunderground v.1.15,2013-05-31 01:05:00,
2013-05-30 20:15:00,62.3,60.2,29.73,ESE,104,3.0,4.0,93,2.35,,,2.67,Wunderground v.1.15,2013-05-31 01:15:00,
2013-05-30 20:25:00,62.1,60.1,29.70,South,180,2.0,7.0,93,0.11,,,2.77,Wunderground v.1.15,2013-05-31 01:25:00,
2013-05-30 20:34:00,62.3,60.2,29.68,East,94,1.0,1.0,93,0.06,,,2.77,Wunderground v.1.15,2013-05-31 01:34:00,
2013-05-30 20:40:00,62.3,60.2,29.68,East,94,0.0,1.0,93,0.06,,,2.78,Wunderground v.1.15,2013-05-31 01:40:00,
2013-05-30 20:50:00,62.4,60.3,29.67,SSE,148,1.0,1.0,93,0.04,,,2.78,Wunderground v.1.15,2013-05-31 01:50:00,
2013-05-30 21:00:00,62.6,60.5,29.67,SE,142,1.0,1.0,93,0.00,,,2.78,Wunderground v.1.15,2013-05-31 02:00:00,
2013-05-30 21:05:00,62.6,60.5,29.67,ESE,103,1.0,1.0,93,0.00,,,2.78,Wunderground v.1.15,2013-05-31 02:05:00,
2013-05-30 21:15:00,62.7,60.6,29.67,East,79,1.0,2.0,93,0.00,,,2.78,Wunderground v.1.15,2013-05-31 02:15:00,
2013-05-30 21:25:00,62.7,60.6,29.68,ESE,103,3.0,4.0,93,0.00,,,2.78,Wunderground v.1.15,2013-05-31 02:25:00,
2013-05-30 21:34:00,62.9,60.8,29.69,ESE,115,1.0,2.0,93,0.00,,,2.78,Wunderground v.1.15,2013-05-31 02:34:00,
2013-05-30 21:40:00,62.9,60.8,29.69,NNE,26,1.0,1.0,93,0.00,,,2.78,Wunderground v.1.15,2013-05-31 02:40:00,
2013-05-30 21:50:00,63.1,61.0,29.70,NNE,26,0.0,0.0,93,0.00,,,2.78,Wunderground v.1.15,2013-05-31 02:50:00,
2013-05-30 22:00:00,63.4,61.3,29.70,NNE,26,0.0,0.0,93,0.00,,,2.78,Wunderground v.1.15,2013-05-31 03:00:00,
2013-05-30 22:05:00,63.5,61.4,29.70,NNE,26,0.0,0.0,93,0.00,,,2.78,Wunderground v.1.15,2013-05-31 03:05:00,
2013-05-30 22:15:00,64.3,62.5,29.70,SSE,156,1.0,2.0,94,0.00,,,2.79,Wunderground v.1.15,2013-05-31 03:15:00,
2013-05-30 22:25:00,65.3,63.5,29.70,SSE,148,1.0,1.0,94,0.00,,,2.79,Wunderground v.1.15,2013-05-31 03:25:00,
2013-05-30 22:35:00,66.3,64.5,29.72,South,188,3.0,6.0,94,0.09,,,2.81,Wunderground v.1.15,2013-05-31 03:35:00,
2013-05-30 22:44:00,67.1,65.3,29.72,ESE,120,4.0,6.0,94,0.18,,,2.84,Wunderground v.1.15,2013-05-31 03:44:00,
2013-05-30 22:50:00,67.3,65.2,29.73,SSE,165,4.0,6.0,93,0.14,,,2.85,Wunderground v.1.15,2013-05-31 03:50:00,
2013-05-30 23:00:00,67.4,65.3,29.73,SE,143,7.0,13.0,93,0.16,,,2.88,Wunderground v.1.15,2013-05-31 04:00:00,
2013-05-30 23:05:00,67.4,65.3,29.70,SSE,165,8.0,13.0,93,0.16,,,2.89,Wunderground v.1.15,2013-05-31 04:05:00,
2013-05-30 23:09:00,67.4,65.3,29.70,SE,126,8.0,8.0,93,0.09,,,2.89,Wunderground v.1.15,2013-05-31 04:09:00,
2013-05-30 23:15:00,67.3,65.2,29.70,East,90,7.0,8.0,93,0.08,,,2.90,Wunderground v.1.15,2013-05-31 04:15:00,
2013-05-30 23:19:00,67.3,65.2,29.67,SSE,168,6.0,6.0,93,0.07,,,2.90,Wunderground v.1.15,2013-05-31 04:19:00,
2013-05-30 23:25:00,67.3,65.2,29.67,ESE,105,5.0,6.0,93,0.04,,,2.90,Wunderground v.1.15,2013-05-31 04:25:00,
2013-05-30 23:35:00,67.4,65.0,29.67,South,169,3.0,3.0,92,0.00,,,2.90,Wunderground v.1.15,2013-05-31 04:35:00,
2013-05-30 23:44:00,67.8,65.4,29.67,NNE,28,2.0,9.0,92,0.00,,,2.90,Wunderground v.1.15,2013-05-31 04:44:00,
2013-05-30 23:50:00,67.6,64.9,29.67,NNE,32,2.0,2.0,91,0.00,,,2.90,Wunderground v.1.15,2013-05-31 04:50:00,